This is the latest recevied weather packets stored in our database for station/object DC4THF-13. If no packets are shown the sender has not sent any weather packets the latest 10 day(s).
| Time | Temp. | Humidity | Pressure | Rain* | Wind** | Luminosity | Snow |
|---|---|---|---|---|---|---|---|
| 1787640776 | 19.44° C | 69% | 1013.3 hPa | 0 mm | - | - | - |
| 1787640173 | 18.89° C | 71% | 1013.3 hPa | 0 mm | - | - | - |
| 1787639570 | 17.78° C | 75% | 1013.3 hPa | 0 mm | - | - | - |
| 1787638967 | 17.22° C | 84% | 1013.4 hPa | 0 mm | - | - | - |
| 1787638364 | 16.67° C | 92% | 1013.3 hPa | 0 mm | - | - | - |
| 1787637761 | 16.67° C | 95% | 1013.4 hPa | 0 mm | - | - | - |
| 1787637158 | 15° C | 96% | 1013.4 hPa | 0 mm | - | - | - |
| 1787636555 | 13.89° C | 97% | 1013.4 hPa | 0 mm | - | - | - |
| 1787635952 | 12.78° C | 97% | 1013.5 hPa | 0 mm | - | - | - |
| 1787635350 | 11.11° C | 99% | 1013.5 hPa | 0 mm | - | - | - |
| 1787634746 | 10.56° C | 99% | 1013.6 hPa | 0 mm | - | - | - |
| 1787634143 | 10.56° C | 99% | 1013.4 hPa | 0 mm | - | - | - |
| 1787633540 | 10° C | 98% | 1013.5 hPa | 0 mm | - | - | - |
| 1787632938 | 9.44° C | 98% | 1013.4 hPa | 0 mm | - | - | - |
| 1787632335 | 9.44° C | 97% | 1013.4 hPa | 0 mm | - | - | - |
| 1787631792 | 8.89° C | 97% | 1013.3 hPa | 0 mm | - | - | - |
| 1787631189 | 8.89° C | 96% | 1013.4 hPa | 0 mm | - | - | - |
| 1787630586 | 8.33° C | 96% | 1013.6 hPa | 0 mm | - | - | - |
| 1787629983 | 8.33° C | 95% | 1013.7 hPa | 0 mm | - | - | - |
| 1787629380 | 8.33° C | 95% | 1013.7 hPa | 0 mm | - | - | - |
| 1787628777 | 8.33° C | 95% | 1013.8 hPa | 0 mm | - | - | - |
| 1787628174 | 8.33° C | 95% | 1013.6 hPa | 0 mm | - | - | - |
| 1787627571 | 7.78° C | 94% | 1013.6 hPa | 0 mm | - | - | - |
| 1787626968 | 7.78° C | 94% | 1013.8 hPa | 0 mm | - | - | - |
| 1787626365 | 7.78° C | 94% | 1013.8 hPa | 0 mm | - | - | - |
* Rain latest hour (hover to see other rain measurements)
** Current wind speed in m/s (hover to see current wind gust speed)